Location: Amsterdam
(30.7274°N, 84.4357°W)
Time: 21:31:34
(UTC+00:00)

Tiros 1 despin weight - Pass Details

Date: 20 February 2026
Orbit: 556 x 593 km, 48.2° (Epoch: 9 March)

Event Time Altitude Azimuth Distance (km) Brightness Sun altitude
Rises 18:33:36 0° 230° (SW) 2,754 ? 47.3°
Reaches altitude 10° 18:35:52 10° 231° (SW) 1,853 ? 47.2°
Maximum altitude 18:40:07 83° 319° (NW) 568 ? 46.9°
Drops below altitude 10° 18:44:19 10° 48° (NE) 1,841 ? 46.7°
Sets 18:46:34 0° 49° (NE) 2,735 ? 46.5°
